User: anonymous   Login
Location: Unspecified
(35.6530°N, 0.0000°E)
Time: 01:07:14
(UTC+00:00)
Language:

Iridium 36 - Orbit

View from above orbital plane
View from above orbital plane
View from above satellite
View from above satellite

Ground track
Ground track

The orbit is defined by the following mean orbital elements,

1 24967U          26088.14838770 +.00000000 +00000-0 +13917-3 0 00007
2 24967  86.3948  53.1972 0002191  94.5324 265.6124 14.37889166    04
Epoch (UTC): 29 March 2026 03:33:40
Eccentricity: 0.0002191
inclination: 86.3948°
perigee height: 764 km
apogee height: 767 km
right ascension of ascending node: 53.1972°
argument of perigee: 94.5324°
revolutions per day: 14.37889166
mean anomaly at epoch: 265.6124°

The dashed part of the orbit path shows where the satellite is in the earth's shadow,  

DLR